This demonstration page uses our WeatherBlox Daily Observations layout. Learn more.

Left ArrowRight Arrow

Hourly Observations for January 26, 2022

Temp ( °F °C ) Dew Point ( °F °C ) Humidity (%) Winds ( mph kmh ) Pressure ( in mb ) Visibility ( mi km ) Precip ( " mm )
12:52 am 00:52 Clear 6 -14.4 0 -17.8 76 76 Calm 30.55 1035 10 16 0.00 0.00
1:52 am 01:52 Clear 7 -13.9 -1 -18.3 70 70 ESE 3 6 30.54 1034 10 16 0.00 0.00
2:52 am 02:52 Clear 5 -15 -1 -18.3 76 76 SSE 6 9 30.53 1034 10 16 0.00 0.00
3:52 am 03:52 Clear 4 -15.6 -1 -18.3 80 80 SSE 7 11 30.51 1033 10 16 0.00 0.00
4:52 am 04:52 Mostly Clear 6 -14.4 0 -17.8 76 76 SSE 8 13 30.48 1032 10 16 0.00 0.00
5:52 am 05:52 Clear 5 -15 0 -17.8 79 79 SSE 9 15 30.47 1032 10 16 0.00 0.00
6:52 am 06:52 Clear 6 -14.4 0 -17.8 76 76 SSE 9 15 30.45 1031 10 16 0.00 0.00
7:52 am 07:52 Mostly Sunny 9 -12.8 1 -17.2 70 70 S 12 19 30.43 1030 10 16 0.00 0.00
8:52 am 08:52 Mostly Cloudy 11 -11.7 3 -16.1 70 70 SSE 13 20 30.42 1030 10 16 0.00 0.00
9:52 am 09:52 Mostly Sunny 17 -8.3 7 -13.9 64 64 S 13 20 30.39 1029 10 16 0.00 0.00
10:52 am 10:52 Sunny 23 -5 9 -12.8 55 55 SSW 14 22 30.36 1028 10 16 0.00 0.00
11:52 am 11:52 Sunny 26 -3.3 11 -11.7 53 53 S 15 24 30.32 1027 10 16 0.00 0.00
12:52 pm 12:52 Mostly Sunny 31 -0.6 12 -11.1 45 45 SSW 17 28 30.24 1024 10 16 0.00 0.00
1:52 pm 13:52 Mostly Sunny 34 1.1 13 -10.6 42 42 SSW 17 28 30.19 1022 10 16 0.00 0.00
2:52 pm 14:52 Mostly Sunny 36 2.2 14 -10 40 40 SSW 20 31 30.15 1021 10 16 0.00 0.00
3:52 pm 15:52 Partly Cloudy 36 2.2 15 -9.4 42 42 S 22 35 30.13 1020 10 16 0.00 0.00
4:52 pm 16:52 Mostly Sunny 36 2.2 15 -9.4 42 42 S 15 24 30.11 1020 10 16 0.00 0.00
5:52 pm 17:52 Mostly Cloudy 35 1.7 17 -8.3 48 48 S 13 20 30.11 1020 10 16 0.00 0.00
6:52 pm 18:52 Mostly Cloudy 34 1.1 16 -8.9 48 48 S 15 24 30.11 1020 10 16 0.00 0.00
7:52 pm 19:52 Mostly Cloudy 33 0.6 13 -10.6 43 43 S 13 20 30.11 1020 10 16 0.00 0.00
8:52 pm 20:52 Mostly Cloudy 33 0.6 9 -12.8 36 36 S 12 19 30.11 1020 10 16 0.00 0.00
9:52 pm 21:52 Mostly Cloudy 32 0 8 -13.3 36 36 S 13 20 30.10 1019 10 16 0.00 0.00
10:52 pm 22:52 Mostly Cloudy 32 0 9 -12.8 38 38 S 13 20 30.10 1019 10 16 0.00 0.00
11:52 pm 23:52 Mostly Cloudy 31 -0.6 12 -11.1 45 45 SSW 9 15 30.09 1019 10 16 0.00 0.00

Powered by AerisWeather